sat.trackr.live / text

‹ back to catalog

STARLINK-2123

NORAD 47401 · 2021-005BE

PAYLOAD ACTIVE UNKNOWN

§ Identity

Operator
Country
US
Launch date
2021-01-20
Launch site
AFETR
Launch vehicle
Mass (kg)
RCS (m²)

Purposes: comms

External: N2YO · Heavens-Above · Gunter

§ Orbital elements

Epoch: 2026-09-13T02:32:51.482688Z

Period
94.01 min
Inclination
53.1590°
Eccentricity
0.0001279
Mean motion
15.31699758 rev/d
Perigee alt
469.9 km
Apogee alt
471.6 km
Semi-major
6,848.9 km
B*
4.2834e-5
RAAN
244.7710°
Arg perigee
92.3920°
Mean anomaly
267.7228°
Rev number
31,210

§ Raw data

STARLINK-21231 47401U 21005BE  26256.10615142  .00000964  00000+0  42834-4 0  99982 47401  53.1590 244.7710 0001279  92.3920 267.7228 15.31699758312105

JSON: /api/v1/satellites/47401 · /tle

For live sub-satellite position, see the globe view (requires WebGL).

§ Visibility from observer

Set your observer location to see the next 7 days of passes ≥ 10°. The values pass through the URL so the page stays shareable.

No JS? Fill the form by hand. The geolocation button needs JavaScript.